Location: Baia Mare
(47.6567°N, 23.5850°E)
Time: 18:31:31
(UTC+03:00)

ISS - Pass Details

Date: 07 March 2018
Orbit: 402 x 408 km, 51.6° (Epoch: 23 June)

Event Time Altitude Azimuth Distance (km) Brightness Sun altitude
Exits shadow 05:58:33 15° 285° (WNW) 1,227 -2.0 -10.4°
Maximum altitude 06:01:03 41° 353° (N) 606 -3.0 -9.9°
Drops below altitude 10° 06:04:13 10° 66° (ENE) 1,476 0.3 -9.4°
Sets 06:06:23 0° 74° (ENE) 2,335 1.9 -9.0°
